Overview Statistics Trail Chart Weather Telemetry Raw packets
 

This is the latest recevied weather packets stored in our database for station/object KO4YAW. If no packets are shown the sender has not sent any weather packets the latest 10 day(s).

<< 9 10 11 12 13 14 15 >>
Time Temp. Humidity Pressure Rain* Wind** Luminosity Snow
1788432529 16.11° C 63% 1017.5 hPa 0 mm - 0 W/m² -
1788431629 15.56° C 64% 1017.5 hPa 0 mm - 0 W/m² -
1788430729 16.11° C 63% 1017.5 hPa 0 mm - 0 W/m² -
1788429829 16.67° C 62% 1017.5 hPa 0 mm - 0 W/m² -
1788428929 16.67° C 62% 1017.6 hPa 0 mm - 0 W/m² -
1788428029 16.67° C 61% 1017.6 hPa 0 mm - 0 W/m² -
1788427129 16.67° C 62% 1017.7 hPa 0 mm - 0 W/m² -
1788426229 17.22° C 61% 1017.6 hPa 0 mm - 0 W/m² -
1788425329 17.22° C 61% 1017.6 hPa 0 mm - 0 W/m² -
1788424429 17.22° C 62% 1017.7 hPa 0 mm - 0 W/m² -
1788423529 17.78° C 62% 1017.6 hPa 0 mm - 0 W/m² -
1788422629 17.78° C 62% 1017.7 hPa 0 mm - 0 W/m² -
1788421751 17.78° C 62% 1017.9 hPa 0 mm - 0 W/m² -
1788420829 17.22° C 64% 1017.9 hPa 0 mm - 0 W/m² -
1788419929 17.78° C 63% 1017.9 hPa 0 mm - 0 W/m² -
1788419029 17.78° C 63% 1018.2 hPa 0 mm - 0 W/m² -
1788418129 17.78° C 62% 1018.2 hPa 0 mm - 0 W/m² -
1788417229 18.33° C 60% 1018.2 hPa 0 mm - 0 W/m² -
1788416329 18.89° C 59% 1017.9 hPa 0 mm - 0 W/m² -
1788415429 18.89° C 59% 1017.9 hPa 0 mm - 0 W/m² -
1788414529 18.89° C 59% 1018 hPa 0 mm - 0 W/m² -
1788413629 18.89° C 59% 1017.9 hPa 0 mm - 0 W/m² -
1788412729 18.89° C 59% 1018.3 hPa 0 mm - 0 W/m² -
1788411829 18.89° C 60% 1018.2 hPa 0 mm - 0 W/m² -
1788410929 19.44° C 59% 1018.2 hPa 0 mm - 0 W/m² -

* Rain since midnight (hover to see other rain measurements)
** Current wind speed in m/s (hover to see current wind gust speed)